Regional Weather Roundup
Issued by NWS Burlington, VT

Home | Current Version | Previous Version | Text Only | Print | Product List | Glossary On
Versions: 1 2 3 4 5 6 7 8 9 10 11 12 13 14 15 16 17 18 19 20 21 22 23 24 25 26 27 28 29 30 31 32 33 34 35 36 37 38 39 40 41 42 43 44 45 46 47 48 49 50
000
ASUS41 KBTV 231030
RWRBTV
VERMONT REGIONAL WEATHER ROUNDUP
NATIONAL WEATHER SERVICE BURLINGTON VT
600 AM EDT SAT MAY 23 2015

NOTE: "FAIR" INDICATES FEW OR NO CLOUDS BELOW 12,000 FEET WITH NO
SIGNIFICANT WEATHER AND/OR OBSTRUCTIONS TO VISIBILITY.

* THESE REPORTS ARE NOT UNDER NWS QUALITY CONTROL AND/OR DO NOT
  REPORT WEATHER SUCH AS PRECIPITATION AND FOG.

VTZ001>019-231100-
_____VERMONT_____


CITY           SKY/WX    TMP DP  RH WIND       PRES   REMARKS
BURLINGTON     MOSUNNY   39  23  52 NW9       30.27R
MONTPELIER     SUNNY     34  22  61 NW13      30.25R
MORRISVILLE    SUNNY     37  23  56 CALM      30.25R
ST. JOHNSBURY*   N/A     36  24  62 MISG      30.20R
LYNDONVILLE*     N/A     34  22  61 W9        30.21R
MIDDLEBURY*      N/A     30  24  78 CALM      30.28R
RUTLAND*       SUNNY     34  19  55 N3        30.26R
SPRINGFIELD    SUNNY     37  17  44 W3        30.26R
HIGHGATE*        N/A     35  26  68 W6        30.27R
NEWPORT*         N/A     33  24  68 W9G16     30.22R
BENNINGTON     SUNNY     36  20  52 CALM      30.28R
SUTTON*          N/A     32 N/A N/A MISG        N/A
GALLUP MILLS*    N/A     32 N/A N/A MISG        N/A
MT. MANSFIELD*   N/A     23 N/A N/A CALM        N/A

_____LAKE CHAMPLAIN_____


CITY           SKY/WX    TMP DP  RH WIND       PRES   REMARKS
BURTON ISLAND*   N/A     41  32  70 W15         N/A
COLCHESTER RF*   N/A     41  27  56 NW20        N/A
DIAMOND ISL*     N/A     39  23  52 W14         N/A

$$

NYZ007-026>031-035-052-083-231100-
_____NORTHERN NEW YORK_____


CITY           SKY/WX    TMP DP  RH WIND       PRES   REMARKS
PLATTSBURGH    SUNNY     37  23  56 VRB5      30.28R
SARANAC LAKE   SUNNY     29  19  66 CALM      30.24R
MASSENA        SUNNY     29  24  82 SW3       30.33R
OGDENSBURG*    SUNNY     37  28  70 W3        30.35R
POTSDAM*       SUNNY     30  28  93 SW5       30.33R
STARK FALLS*     N/A     30 N/A N/A W3          N/A
WATERTOWN      SUNNY     27  25  92 CALM      30.35R
FT DRUM        SUNNY     33  25  73 W2        30.33R
ALBANY         SUNNY     38  26  62 W6        30.33R
GLENS FALLS    SUNNY     35  27  72 SW3       30.31R

$$
NHZ002-005-011-231100-
_____NEW HAMPSHIRE_____


CITY           SKY/WX    TMP DP  RH WIND       PRES   REMARKS
LEBANON        SUNNY     32  24  72 CALM      30.23R
KEENE          SUNNY     36  25  64 CALM      30.28R
MT WASHINGTON  FOG       12  12 100 NW63G72     N/A  VSB 1/16WCI -16
PLYMOUTH         N/A     38  26  61 W9        30.21R
WHITEFIELD     SUNNY     34  22  61 W5        30.18R

$$

_____REGIONAL QUEBEC LOCATIONS_____


CITY           SKY/WX    TMP DP  RH WIND       PRES   REMARKS
MONTREAL       MOSUNNY   37  27  65 W7        30.28R
QUEBEC CITY    MOSUNNY   32  25  74 SW14      30.11R
SHERBROOKE     SUNNY     32  27  80 W13G18    30.17R

_____REGIONAL ONTARIO LOCATIONS_____


CITY           SKY/WX    TMP DP  RH WIND       PRES   REMARKS
OTTAWA         SUNNY     28  23  80 W6        30.32R

______KEY______
VSB  - VISIBILITY IN MILES
WCI  - WIND CHILL INDEX
HX   - HEAT INDEX
$$
NNNN



USA.gov is the U.S. government's official web portal to all federal, state and local government web resources and services.